H1 CPF 2 NER 2024 4 1 9 092 01 glonass129 H2 1106402 9129 37868 2024 4 1 0 0 0 2024 4 4 23 45 0 900 1 1 0 0 0 1 H9 10 0 60401 0.00000 0 -9552086.521 -11701985.158 -20521383.612 10 0 60401 900.00000 0 -9696998.762 -14138455.619 -18859846.462 10 0 60401 1800.00000 0 -9998814.626 -16330783.506 -16831126.654 10 0 60401 2700.00000 0 -10417639.845 -18227889.189 -14474954.421 10 0 60401 3600.00000 0 -10905783.331 -19788997.770 -11837377.866 10 0 60401 4500.00000 0 -11409935.052 -20985124.339 -8969847.442 10 0 60401 5400.00000 0 -11873589.105 -21800073.575 -5928199.868 10 0 60401 6300.00000 0 -12239608.305 -22230914.747 -2771562.432 10 0 60401 7200.00000 0 -12452821.302 -22287915.317 438800.125 10 0 60401 8100.00000 0 -12462542.553 -21993939.105 3640673.295 10 0 60401 9000.00000 0 -12224909.402 -21383337.052 6772091.984 10 0 60401 9900.00000 0 -11704938.796 -20500379.482 9772528.327 10 0 60401 10800.00000 0 -10878218.334 -19397297.241 12584046.081 10 0 60401 11700.00000 0 -9732161.917 -18132014.633 15152400.617 10 0 60401 12600.00000 0 -8266778.447 -16765669.127 17428064.924 10 0 60401 13500.00000 0 -6494922.090 -15360020.821 19367163.819 10 0 60401 14400.00000 0 -4442013.731 -13974858.520 20932300.404 10 0 60401 15300.00000 0 -2145244.623 -12665508.898 22093260.823 10 0 60401 16200.00000 0 347706.021 -11480550.603 22827585.507 10 0 60401 17100.00000 0 2980388.329 -10459826.644 23120997.243 10 0 60401 18000.00000 0 5689665.354 -9632836.258 22967678.606 10 0 60401 18900.00000 0 8408079.595 -9017572.190 22370393.520 10 0 60401 19800.00000 0 11066407.591 -8619851.431 21340450.045 10 0 60401 20700.00000 0 13596299.621 -8433167.668 19897503.847 10 0 60401 21600.00000 0 15932897.639 -8439072.642 18069204.298 10 0 60401 22500.00000 0 18017324.639 -8608072.011 15890687.761 10 0 60401 23400.00000 0 19798942.990 -8901000.119 13403925.351 10 0 60401 24300.00000 0 21237287.868 -9270817.953 10656935.263 10 0 60401 25200.00000 0 22303594.427 -9664760.426 7702872.599 10 0 60401 26100.00000 0 22981853.436 -10026743.795 4599012.519 10 0 60401 27000.00000 0 23269349.272 -10299932.139 1405645.168 10 0 60401 27900.00000 0 23176655.562 -10429354.132 -1815096.698 10 0 60401 28800.00000 0 22727086.641 -10364458.157 -5000454.357 10 0 60401 29700.00000 0 21955626.265 -10061495.523 -8088279.430 10 0 60401 30600.00000 0 20907377.650 -9485628.137 -11018264.279 10 0 60401 31500.00000 0 19635599.894 -8612668.228 -13733140.501 10 0 60401 32400.00000 0 18199414.065 -7430373.202 -16179819.931 10 0 60401 33300.00000 0 16661276.871 -5939237.782 -18310453.702 10 0 60401 34200.00000 0 15084330.164 -4152747.224 -20083386.545 10 0 60401 35100.00000 0 13529740.018 -2097078.907 -21463985.998 10 0 60401 36000.00000 0 12054139.472 189736.543 -22425329.049 10 0 60401 36900.00000 0 10707284.406 2659159.881 -22948732.013 10 0 60401 37800.00000 0 9530022.420 5253937.095 -23024113.101 10 0 60401 38700.00000 0 8552660.689 7910266.673 -22650180.882 10 0 60401 39600.00000 0 7793801.191 10560248.525 -21834445.695 10 0 60401 40500.00000 0 7259691.172 13134511.065 -20593054.908 10 0 60401 41400.00000 0 6944114.345 15564905.690 -18950456.615 10 0 60401 42300.00000 0 6828824.948 17787155.417 -16938899.916 10 0 60401 43200.00000 0 6884503.547 19743346.926 -14597783.170 10 0 60401 44100.00000 0 7072191.363 21384162.429 -11972864.595 10 0 60401 45000.00000 0 7345139.725 22670759.235 -9115352.191 10 0 60401 45900.00000 0 7650994.142 23576220.285 -6080892.140 10 0 60401 46800.00000 0 7934218.778 24086517.365 -2928476.517 10 0 60401 47700.00000 0 8138657.629 24200949.413 280707.505 10 0 60401 48600.00000 0 8210123.659 23932040.489 3484464.152 10 0 60401 49500.00000 0 8098906.681 23304904.489 6620788.179 10 0 60401 50400.00000 0 7762094.875 22356105.660 9629053.750 10 0 60401 51300.00000 0 7165613.214 21132064.537 12451170.966 10 0 60401 52200.00000 0 6285894.301 19687077.156 15032689.000 10 0 60401 53100.00000 0 5111112.650 18081030.769 17323826.198 10 0 60401 54000.00000 0 3641931.621 16376911.008 19280409.199 10 0 60401 54900.00000 0 1891732.114 14638203.366 20864705.062 10 0 60401 55800.00000 0 -113686.735 12926295.591 22046132.308 10 0 60401 56700.00000 0 -2336923.417 11297987.103 22801838.978 10 0 60401 57600.00000 0 -4730274.325 9803206.905 23117137.925 10 0 60401 58500.00000 0 -7237466.785 8483032.951 22985791.769 10 0 60401 59400.00000 0 -9795755.874 7368093.754 22410142.183 10 0 60401 60300.00000 0 -12338301.190 6477417.739 21401080.484 10 0 60401 61200.00000 0 -14796728.070 5817777.962 19977858.884 10 0 60401 62100.00000 0 -17103769.809 5383559.897 18167744.221 10 0 60401 63000.00000 0 -19195883.339 5157158.851 16005518.615 10 0 60401 63900.00000 0 -21015730.999 5109891.878 13532834.189 10 0 60401 64800.00000 0 -22514425.561 5203387.688 10797431.807 10 0 60401 65700.00000 0 -23653444.441 5391397.878 7852236.628 10 0 60401 66600.00000 0 -24406131.801 5621954.601 4754346.138 10 0 60401 67500.00000 0 -24758723.771 5839784.490 1563928.986 10 0 60401 68400.00000 0 -24710851.477 5988876.908 -1656944.581 10 0 60401 69300.00000 0 -24275498.370 6015097.084 -4845517.742 10 0 60401 70200.00000 0 -23478411.529 5868731.848 -7939583.051 10 0 60401 71100.00000 0 -22356990.049 5506857.722 -10878713.765 10 0 60401 72000.00000 0 -20958696.408 4895428.140 -13605464.524 10 0 60401 72900.00000 0 -19339057.596 4010988.184 -16066515.803 10 0 60401 73800.00000 0 -17559340.818 2841941.090 -18213737.556 10 0 60401 74700.00000 0 -15684002.984 1389310.057 -20005149.172 10 0 60401 75600.00000 0 -13778023.030 -333039.197 -21405755.273 10 0 60401 76500.00000 0 -11904231.226 -2298726.241 -22388239.713 10 0 60401 77400.00000 0 -10120749.533 -4469721.310 -22933503.447 10 0 60401 78300.00000 0 -8478651.977 -6797712.104 -23031035.513 10 0 60401 79200.00000 0 -7019944.059 -9225914.320 -22679110.161 10 0 60401 80100.00000 0 -5775946.092 -11691249.119 -21884806.976 10 0 60401 81000.00000 0 -4766147.500 -14126795.258 -20663854.738 10 0 60401 81900.00000 0 -3997578.536 -16464412.137 -19040303.398 10 0 60401 82800.00000 0 -3464723.466 -18637423.066 -17046032.163 10 0 60401 83700.00000 0 -3149975.960 -20583245.982 -14720104.943 10 0 60401 84600.00000 0 -3024614.324 -22245861.602 -12107987.358 10 0 60401 85500.00000 0 -3050252.268 -23578016.337 -9260642.195 10 0 60402 0.00000 0 -3180701.018 -24543068.989 -6233522.622 10 0 60402 900.00000 0 -3364161.718 -25116406.245 -3085482.277 10 0 60402 1800.00000 0 -3545653.459 -25286368.750 122371.552 10 0 60402 2700.00000 0 -3669573.445 -25054653.313 3327864.298 10 0 60402 3600.00000 0 -3682280.615 -24436175.605 6468952.914 10 0 60402 4500.00000 0 -3534593.982 -23458402.130 9484915.820 10 0 60402 5400.00000 0 -3184101.183 -22160181.298 12317511.554 10 0 60402 6300.00000 0 -2597181.165 -20590123.863 14912085.040 10 0 60402 7200.00000 0 -1750657.275 -18804601.019 17218601.728 10 0 60402 8100.00000 0 -633012.472 -16865443.536 19192591.602 10 0 60402 9000.00000 0 754883.465 -14837436.875 20795986.933 10 0 60402 9900.00000 0 2399564.993 -12785715.032 21997839.569 10 0 60402 10800.00000 0 4275289.381 -10773159.406 22774905.799 10 0 60402 11700.00000 0 6344870.893 -8857908.521 23112088.863 10 0 60402 12600.00000 0 8560997.881 -7091079.751 23002731.447 10 0 60402 13500.00000 0 10867980.741 -5514795.709 22448752.712 10 0 60402 14400.00000 0 13203861.144 -4160595.714 21460626.719 10 0 60402 15300.00000 0 15502798.088 -3048297.564 20057201.474 10 0 60402 16200.00000 0 17697634.623 -2185356.776 18265360.311 10 0 60402 17100.00000 0 19722541.068 -1566750.531 16119529.906 10 0 60402 18000.00000 0 21515626.459 -1175392.229 13661041.936 10 0 60402 18900.00000 0 23021410.325 -983060.758 10937358.208 10 0 60402 19800.00000 0 24193051.552 -951807.070 8001171.915 10 0 60402 20700.00000 0 24994240.127 -1035780.332 4909400.536 10 0 60402 21600.00000 0 25400670.763 -1183397.751 1722088.598 10 0 60402 22500.00000 0 25401034.252 -1339766.843 -1498759.030 10 0 60402 23400.00000 0 24997482.282 -1449257.375 -4690390.457 10 0 60402 24300.00000 0 24205543.633 -1458112.878 -7790542.257 10 0 60402 25200.00000 0 23053493.069 -1316989.146 -10738671.595 10 0 60402 26100.00000 0 21581197.898 -983309.557 -13477159.020 10 0 60402 27000.00000 0 19838489.944 -423334.411 -15952456.259 10 0 60402 27900.00000 0 17883131.418 386146.460 -18116154.421 10 0 60402 28800.00000 0 15778461.021 1456572.435 -19925949.581 10 0 60402 29700.00000 0 13590820.583 2786877.239 -21346485.154 10 0 60402 30600.00000 0 11386872.029 4363293.511 -22350053.266 10 0 60402 31500.00000 0 9230919.083 6159706.335 -22917140.596 10 0 60402 32400.00000 0 7182347.598 8138541.421 -23036807.751 10 0 60402 33300.00000 0 5293292.898 10252150.467 -22706895.037 10 0 60402 34200.00000 0 3606632.250 12444634.852 -21934051.282 10 0 60402 35100.00000 0 2154386.172 14654030.065 -20733586.261 10 0 60402 36000.00000 0 956594.225 16814758.104 -19129150.944 10 0 60402 36900.00000 0 20710.354 18860243.853 -17152253.405 10 0 60402 37800.00000 0 -658459.648 20725584.966 -14841621.447 10 0 60402 38700.00000 0 -1098279.195 22350162.935 -12242426.058 10 0 60402 39600.00000 0 -1327284.050 23680086.026 -9405382.427 10 0 60402 40500.00000 0 -1383712.922 24670362.455 -6385747.457 10 0 60402 41400.00000 0 -1313630.512 25286714.019 -3242234.494 10 0 60402 42300.00000 0 -1168724.661 25506956.001 -35867.282 10 0 60402 43200.00000 0 -1003872.371 25321887.687 3171204.037 10 0 60402 44100.00000 0 -874578.434 24735658.540 6316901.856 10 0 60402 45000.00000 0 -834394.986 23765596.963 9340412.013 10 0 60402 45900.00000 0 -932430.345 22441510.815 12183344.501 10 0 60402 46800.00000 0 -1211051.105 20804490.380 14790842.805 10 0 60402 47700.00000 0 -1703872.908 18905264.597 17112622.051 10 0 60402 48600.00000 0 -2434122.969 16802179.188 19103917.878 10 0 60402 49500.00000 0 -3413441.979 14558880.108 20726329.776 10 0 60402 50400.00000 0 -4641174.889 12241797.329 21948544.641 10 0 60402 51300.00000 0 -6104180.266 9917531.463 22746928.390 10 0 60402 52200.00000 0 -7777166.958 7650249.364 23105975.675 10 0 60402 53100.00000 0 -9623545.576 5499194.332 23018609.873 10 0 60402 54000.00000 0 -11596761.621 3516411.818 22486327.813 10 0 60402 54900.00000 0 -13642057.552 1744783.085 21519186.001 10 0 60402 55800.00000 0 -15698593.546 216447.044 20135627.422 10 0 60402 56700.00000 0 -17701841.777 -1048324.809 18362150.571 10 0 60402 57600.00000 0 -19586157.263 -2041753.550 16232824.824 10 0 60402 58500.00000 0 -21287420.285 -2768651.325 13788659.082 10 0 60402 59400.00000 0 -22745641.452 -3245987.927 11076833.357 10 0 60402 60300.00000 0 -23907420.925 -3501942.205 8149805.789 10 0 60402 61200.00000 0 -24728158.258 -3574476.646 5064310.526 10 0 60402 62100.00000 0 -25173918.698 -3509493.967 1880264.497 10 0 60402 63000.00000 0 -25222875.376 -3358652.719 -1340396.354 10 0 60402 63900.00000 0 -24866264.029 -3176934.185 -4534928.619 10 0 60402 64800.00000 0 -24108807.281 -3020064.238 -7641016.381 10 0 60402 65700.00000 0 -22968587.923 -2941900.869 -10598004.096 10 0 60402 66600.00000 0 -21476374.311 -2991900.296 -13348101.418 10 0 60402 67500.00000 0 -19674424.798 -3212771.711 -15837534.278 10 0 60402 68400.00000 0 -17614820.747 -3638422.995 -18017617.536 10 0 60402 69300.00000 0 -15357398.383 -4292287.312 -19845726.102 10 0 60402 70200.00000 0 -12967367.169 -5186104.025 -21286143.801 10 0 60402 71100.00000 0 -10512716.004 -6319207.620 -22310772.036 10 0 60402 72000.00000 0 -8061517.663 -7678356.177 -22899683.571 10 0 60402 72900.00000 0 -5679245.948 -9238107.380 -23041510.318 10 0 60402 73800.00000 0 -3426219.148 -10961726.356 -22733657.779 10 0 60402 74700.00000 0 -1355277.501 -12802586.578 -21982342.644 10 0 60402 75600.00000 0 490208.208 -14706003.940 -20802453.855 10 0 60402 76500.00000 0 2077914.485 -16611425.683 -19217241.226 10 0 60402 77400.00000 0 3387665.039 -18454880.897 -17257839.222 10 0 60402 78300.00000 0 4412009.228 -20171588.523 -14962636.872 10 0 60402 79200.00000 0 5156257.856 -21698612.566 -12376507.714 10 0 60402 80100.00000 0 5637978.306 -22977452.639 -9549916.440 10 0 60402 81000.00000 0 5885973.808 -23956461.353 -6537921.051 10 0 60402 81900.00000 0 5938793.216 -24592987.851 -3399091.158 10 0 60402 82800.00000 0 5842837.062 -24855158.845 -194364.405 10 0 60402 83700.00000 0 5650142.076 -24723224.216 3014136.208 10 0 60402 84600.00000 0 5415939.208 -24190412.742 6164301.082 10 0 60402 85500.00000 0 5196088.887 -23263264.180 9195225.882 10 0 60403 0.00000 0 5044501.645 -21961425.812 12048374.025 10 0 60403 900.00000 0 5010651.993 -20316922.719 14668690.053 10 0 60403 1800.00000 0 5137289.235 -18372935.000 17005640.241 10 0 60403 2700.00000 0 5458439.694 -16182130.863 19014167.317 10 0 60403 3600.00000 0 5997783.117 -13804626.080 20655539.119 10 0 60403 4500.00000 0 6767470.090 -11305652.786 21898078.373 10 0 60403 5400.00000 0 7767429.458 -8753032.618 22717761.075 10 0 60403 6300.00000 0 8985194.834 -6214556.618 23098673.400 10 0 60403 7200.00000 0 10396258.385 -3755377.958 23033319.219 10 0 60403 8100.00000 0 11964938.839 -1435522.925 22522772.562 10 0 60403 9000.00000 0 13645729.908 692378.972 21576671.662 10 0 60403 9900.00000 0 15385075.724 2585053.461 20213053.573 10 0 60403 10800.00000 0 17123502.278 4210148.397 18458030.838 10 0 60403 11700.00000 0 18798018.832 5547344.411 16345314.253 10 0 60403 12600.00000 0 20344691.486 6588962.783 13915588.480 10 0 60403 13500.00000 0 21701283.072 7340044.320 11215750.056 10 0 60403 14400.00000 0 22809849.756 7817894.679 8298020.188 10 0 60403 15300.00000 0 23619185.332 8051113.739 5218947.569 10 0 60403 16200.00000 0 24087009.518 8078148.494 2038319.172 10 0 60403 17100.00000 0 24181806.292 7945429.411 -1182000.532 10 0 60403 18000.00000 0 23884232.274 7705168.503 -4379279.299 10 0 60403 18900.00000 0 23188032.912 7412912.466 -7491151.462 10 0 60403 19800.00000 0 22100424.833 7124955.488 -10456851.469 10 0 60403 20700.00000 0 20641925.574 6895723.077 -13218420.652 10 0 60403 21600.00000 0 18845635.668 6775240.065 -15721861.526 10 0 60403 22500.00000 0 16756001.904 6806792.784 -17918214.849 10 0 60403 23400.00000 0 14427113.167 7024887.182 -19764536.271 10 0 60403 24300.00000 0 11920600.662 7453591.977 -21224751.688 10 0 60403 25200.00000 0 9303231.463 8105339.094 -22270373.220 10 0 60403 26100.00000 0 6644297.601 8980233.763 -22881060.926 10 0 60403 27000.00000 0 4012911.447 10065904.295 -23045018.986 10 0 60403 27900.00000 0 1475321.902 11337898.120 -22759218.781 10 0 60403 28800.00000 0 -907635.413 12760606.943 -22029445.211 10 0 60403 29700.00000 0 -3082847.078 14288681.051 -20870166.369 10 0 60403 30600.00000 0 -5006893.824 15868871.907 -19304230.483 10 0 60403 31500.00000 0 -6647604.302 17442223.962 -17362397.579 10 0 60403 32400.00000 0 -7985127.774 18946522.027 -15082716.668 10 0 60403 33300.00000 0 -9012483.585 20318890.056 -12509762.222 10 0 60403 34200.00000 0 -9735567.661 21498431.214 -9693746.482 10 0 60403 35100.00000 0 -10172619.376 22428797.926 -6689526.289 10 0 60403 36000.00000 0 -10353174.751 23060584.138 -3555525.025 10 0 60403 36900.00000 0 -10316553.359 23353440.068 -352591.540 10 0 60403 37800.00000 0 -10109945.441 23277821.914 2857181.150 10 0 60403 38700.00000 0 -9786181.943 22816304.739 6011654.393 10 0 60403 39600.00000 0 -9401282.731 21964405.247 9049836.658 10 0 60403 40500.00000 0 -9011886.737 20730881.771 11913048.245 10 0 60403 41400.00000 0 -8672671.911 19137500.380 14546036.648 10 0 60403 42300.00000 0 -8433872.607 17218277.896 16898022.619 10 0 60403 43200.00000 0 -8338997.318 15018233.772 18923658.641 10 0 60403 44100.00000 0 -8422841.045 12591702.431 20583883.371 10 0 60403 45000.00000 0 -8709874.177 10000275.156 21846657.599 10 0 60403 45900.00000 0 -9213074.259 7310455.173 22687569.352 10 0 60403 46800.00000 0 -9933249.017 4591120.833 23090297.952 10 0 60403 47700.00000 0 -10858879.191 1910899.357 23046929.001 10 0 60403 48600.00000 0 -11966488.732 -664442.864 22558114.526 10 0 60403 49500.00000 0 -13221528.725 -3074487.937 21633074.802 10 0 60403 50400.00000 0 -14579740.467 -5266431.202 20289440.732 10 0 60403 51300.00000 0 -15988943.581 -7197030.710 18552938.157 10 0 60403 52200.00000 0 -17391177.253 -8834161.379 16456917.986 10 0 60403 53100.00000 0 -18725107.660 -10157909.262 14041738.812 10 0 60403 54000.00000 0 -19928602.872 -11161159.787 11354011.398 10 0 60403 54900.00000 0 -20941368.575 -11849654.258 8445717.293 10 0 60403 55800.00000 0 -21707534.331 -12241510.854 5373216.669 10 0 60403 56700.00000 0 -22178080.989 -12366228.725 2196163.226 10 0 60403 57600.00000 0 -22313005.515 -12263215.840 -1023653.556 10 0 60403 58500.00000 0 -22083129.612 -11979901.812 -4223516.235 10 0 60403 59400.00000 0 -21471472.989 -11569515.205 -7341013.082 10 0 60403 60300.00000 0 -20474130.153 -11088619.878 -10315272.214 10 0 60403 61200.00000 0 -19100610.719 -10594515.898 -13088170.238 10 0 60403 62100.00000 0 -17373626.170 -10142617.011 -15605489.660 10 0 60403 63000.00000 0 -15328329.996 -9783918.102 -17818000.262 10 0 60403 63900.00000 0 -13011041.918 -9562662.491 -19682441.154 10 0 60403 64800.00000 0 -10477509.347 -9514310.292 -21162382.515 10 0 60403 65700.00000 0 -7790779.311 -9663896.036 -22228948.781 10 0 60403 66600.00000 0 -5018770.970 -10024846.667 -22861388.259 10 0 60403 67500.00000 0 -2231651.566 -10598310.874 -23047477.678 10 0 60403 68400.00000 0 500873.157 -11373028.397 -22783753.961 10 0 60403 69300.00000 0 3112239.670 -12325744.399 -22075569.317 10 0 60403 70200.00000 0 5541565.874 -13422150.450 -20936969.608 10 0 60403 71100.00000 0 7735942.782 -14618310.980 -19390399.699 10 0 60403 72000.00000 0 9652383.604 -15862513.386 -17466243.059 10 0 60403 72900.00000 0 11259350.390 -17097462.043 -15202206.280 10 0 60403 73800.00000 0 12537796.684 -18262722.229 -12642562.118 10 0 60403 74700.00000 0 13481685.464 -19297309.686 -9837267.500 10 0 60403 75600.00000 0 14097964.069 -20142315.977 -6840975.075 10 0 60403 76500.00000 0 14406000.731 -20743458.852 -3711958.828 10 0 60403 77400.00000 0 14436509.850 -21053450.581 -510975.592 10 0 60403 78300.00000 0 14230014.344 -21034085.503 2699914.818 10 0 60403 79200.00000 0 13834912.307 -20657960.306 5858547.823 10 0 60403 80100.00000 0 13305231.132 -19909756.338 8903847.655 10 0 60403 81000.00000 0 12698164.573 -18787031.775 11776993.971 10 0 60403 81900.00000 0 12071496.466 -17300491.860 14422540.148 10 0 60403 82800.00000 0 11481018.769 -15473727.022 16789463.230 10 0 60403 83700.00000 0 10978051.138 -13342430.258 18832127.148 10 0 60403 84600.00000 0 10607164.507 -10953126.214 20511142.679 10 0 60403 85500.00000 0 10404202.390 -8361463.907 21794109.573 10 0 60404 0.00000 0 10394681.213 -5630142.591 22656228.320 10 0 60404 900.00000 0 10592635.542 -2826553.034 23080771.651 10 0 60404 1800.00000 0 10999955.953 -20232.958 23059406.549 10 0 60404 2700.00000 0 11606247.511 2719765.766 22592362.461 10 0 60404 3600.00000 0 12389215.860 5327488.371 21688440.838 10 0 60404 4500.00000 0 13315566.560 7742562.682 20364865.326 10 0 60404 5400.00000 0 14342382.360 9912457.574 18646973.733 10 0 60404 6300.00000 0 15418923.425 11794421.948 16567755.571 10 0 60404 7200.00000 0 16488777.679 13357024.113 14167241.669 10 0 60404 8100.00000 0 17492273.394 14581227.189 11491755.143 10 0 60404 9000.00000 0 18369054.360 15460954.752 8593035.827 10 0 60404 9900.00000 0 19060710.217 16003121.648 5527253.144 10 0 60404 10800.00000 0 19513351.058 16227127.086 2353925.119 10 0 60404 11700.00000 0 19680016.671 16163829.826 -865236.280 10 0 60404 12600.00000 0 19522816.772 15854047.348 -4067531.008 10 0 60404 13500.00000 0 19014709.158 15346641.707 -7190503.868 10 0 60404 14400.00000 0 18140837.552 14696272.928 -10173179.167 10 0 60404 15300.00000 0 16899369.401 13960915.703 -12957271.141 10 0 60404 16200.00000 0 15301795.188 13199245.927 -15488344.455 10 0 60404 17100.00000 0 13372674.044 12468009.645 -17716899.849 10 0 60404 18000.00000 0 11148834.478 11819488.103 -19599361.600 10 0 60404 18900.00000 0 8678062.698 11299168.518 -21098945.661 10 0 60404 19800.00000 0 6017333.289 10943721.248 -22186390.082 10 0 60404 20700.00000 0 3230656.852 10779370.604 -22840532.523 10 0 60404 21600.00000 0 386635.629 10820729.237 -23048723.169 10 0 60404 22500.00000 0 -2444169.481 11070145.712 -22807065.142 10 0 60404 23400.00000 0 -5191949.265 11517592.427 -22120478.329 10 0 60404 24300.00000 0 -7790319.799 12141097.612 -21002586.399 10 0 60404 25200.00000 0 -10178847.275 12907701.566 -19475430.506 10 0 60404 26100.00000 0 -12305318.843 13774894.910 -17569016.857 10 0 60404 27000.00000 0 -14127665.620 14692476.081 -15320708.547 10 0 60404 27900.00000 0 -15615459.303 15604747.743 -12774475.241 10 0 60404 28800.00000 0 -16750922.184 16452957.709 -9980016.896 10 0 60404 29700.00000 0 -17529411.363 17177880.120 -6991780.106 10 0 60404 30600.00000 0 -17959360.178 17722427.287 -3867887.412 10 0 60404 31500.00000 0 -18061682.773 18034181.889 -669001.430 10 0 60404 32400.00000 0 -17868670.068 18067743.247 2542853.571 10 0 60404 33300.00000 0 -17422426.367 17786789.825 5705489.562 10 0 60404 34200.00000 0 -16772914.503 17165772.428 8757749.145 10 0 60404 35100.00000 0 -15975693.100 16191168.437 11640674.042 10 0 60404 36000.00000 0 -15089441.591 14862245.838 14298626.294 10 0 60404 36900.00000 0 -14173376.659 13191306.169 16680342.044 10 0 60404 37800.00000 0 -13284667.517 11203396.864 18739899.436 10 0 60404 38700.00000 0 -12475956.850 8935504.979 20437584.029 10 0 60404 39600.00000 0 -11793089.438 6435265.152 21740637.021 10 0 60404 40500.00000 0 -11273141.643 3759234.049 22623873.732 10 0 60404 41400.00000 0 -10942832.533 970800.729 23070161.933 10 0 60404 42300.00000 0 -10817381.949 -1862183.040 23070751.773 10 0 60404 43200.00000 0 -10899862.740 -4669957.353 22625451.300 10 0 60404 44100.00000 0 -11181074.550 -7383490.846 21742643.881 10 0 60404 45000.00000 0 -11639945.494 -9937093.043 20439146.161 10 0 60404 45900.00000 0 -12244446.650 -12270896.453 18739907.671 10 0 60404 46800.00000 0 -12952983.277 -14333107.101 16677555.773 10 0 60404 47700.00000 0 -13716206.822 -16081930.827 14291792.290 10 0 60404 48600.00000 0 -14479173.976 -17487095.244 11628650.988 10 0 60404 49500.00000 0 -15183763.892 -18530903.161 8739627.859 10 0 60404 50400.00000 0 -15771253.027 -19208772.109 5680699.083 10 0 60404 51300.00000 0 -16184939.430 -19529235.725 2511244.201 10 0 60404 52200.00000 0 -16372705.106 -19513405.140 -707105.411 10 0 60404 53100.00000 0 -16289406.649 -19193911.462 -3911670.405 10 0 60404 54000.00000 0 -15898990.757 -18613372.766 -7039955.592 10 0 60404 54900.00000 0 -15176242.189 -17822449.777 -10030885.058 10 0 60404 55800.00000 0 -14108087.014 -16877572.562 -12826014.331 10 0 60404 56700.00000 0 -12694392.817 -15838435.290 -15370693.834 10 0 60404 57600.00000 0 -10948229.097 -14765366.522 -17615158.720 10 0 60404 58500.00000 0 -8895574.461 -13716688.233 -19515521.606 10 0 60404 59400.00000 0 -6574481.233 -12746177.395 -21034646.991 10 0 60404 60300.00000 0 -4033731.664 -11900739.482 -22142888.807 10 0 60404 61200.00000 0 -1331042.024 -11218393.931 -22818675.759 10 0 60404 62100.00000 0 1469109.696 -10726657.814 -23048932.574 10 0 60404 63000.00000 0 4297940.626 -10441396.412 -22829329.079 10 0 60404 63900.00000 0 7085000.551 -10366188.924 -22164352.806 10 0 60404 64800.00000 0 9760878.874 -10492235.052 -21067204.697 10 0 60404 65700.00000 0 12259867.249 -10798804.744 -19559521.255 10 0 60404 66600.00000 0 14522466.452 -11254210.032 -17670930.055 10 0 60404 67500.00000 0 16497633.224 -11817255.541 -15438448.970 10 0 60404 68400.00000 0 18144674.414 -12439104.112 -12905742.434 10 0 60404 69300.00000 0 19434711.075 -13065476.511 -10122250.940 10 0 60404 70200.00000 0 20351653.804 -13639090.565 -7142212.153 10 0 60404 71100.00000 0 20892651.482 -14102235.427 -4023593.989 10 0 60404 72000.00000 0 21067997.813 -14399371.619 -826961.413 10 0 60404 72900.00000 0 20900502.865 -14479647.087 2385700.420 10 0 60404 73800.00000 0 20424358.924 -14299223.690 5552183.630 10 0 60404 74700.00000 0 19683550.775 -13823317.097 8611252.688 10 0 60404 75600.00000 0 18729878.903 -13027865.543 11503814.678 10 0 60404 76500.00000 0 17620679.545 -11900758.624 14174043.308 10 0 60404 77400.00000 0 16416337.338 -10442575.824 16570436.458 10 0 60404 78300.00000 0 15177694.121 -8666804.600 18646788.731 10 0 60404 79200.00000 0 13963461.036 -6599529.148 20363062.288 10 0 60404 80100.00000 0 12827740.378 -4278602.369 21686141.163 10 0 60404 81000.00000 0 11817758.747 -1752334.238 22590456.410 10 0 60404 81900.00000 0 10971904.202 922250.845 23058471.541 10 0 60404 82800.00000 0 10318147.728 3681517.947 23081019.894 10 0 60404 83700.00000 0 9872913.752 6457602.465 22657487.839 10 0 60404 84600.00000 0 9640446.485 9180972.447 21795840.001 10 0 60404 85500.00000 0 9612698.839 11783069.159 20512485.014 99